Regional Weather Roundup
Issued by NWS

Home | Current Version | Previous Version | Text Only | Print | Product List | Glossary On
Versions: 1 2 3 4 5 6 7 8 9 10 11 12 13 14 15 16 17 18 19 20 21 22 23 24 25 26 27 28 29 30 31 32 33 34 35 36 37 38 39 40 41 42 43 44 45 46 47 48 49 50
000
ASUS45 KABQ 182301
RWRNM
WEATHER ROUNDUP FOR NEW MEXICO
NATIONAL WEATHER SERVICE ALBUQUERQUE NM
400 PM MST THU DEC 18 2014

NOTE: "FAIR" MEANS FEW OR NO CLOUDS BELOW 12,000 FEET AGL WITH NO
       SIGNIFICANT WEATHER OR OBSTRUCTIONS TO VISION.

      THIS PRODUCT IS RELEASED AS TWO VERSIONS.  ONE VERSION NEAR
      THE TOP OF THE HOUR CONTAINING PRELIMINARY DATA FROM ALBUQUERQUE
      AND OTHER STATIONS.  A FINAL VERSION WITH ADDITIONAL DATA IS
      ISSUED ABOUT 10 MINUTES AFTER THE HOUR.

NMZ501-503-504-510>518-190000-
NORTHWEST PLATEAU/NORTHCENTRAL MOUNTAINS

CITY           SKY/WX    TMP DP  RH WIND       PRES   REMARKS
FARMINGTON     PTCLDY    40  28  62 W7        30.09S
SANTA FE       CLOUDY    37  23  56 NW3       30.07S
TAOS           MOCLDY    32  25  74 N6        30.07S WCI  26
ANGEL FIRE     FAIR      27  19  72 W10       30.05R WCI  18

$$
NMZ402-403-502-505>509-190000-
WESTCENTRAL MOUNTAINS/SOUTHWEST MOUNTAINS

CITY           SKY/WX    TMP DP  RH WIND       PRES   REMARKS
GALLUP         CLOUDY    37  26  64 W6        30.10R WCI  32
GRANTS         CLOUDY    34  28  77 W8G18     30.12R WCI  28
SILVER CITY    CLOUDY    37  36  93 N9        30.09S WCI  31

$$
NMZ407-409-411-412-190000-
SOUTHERN DESERTS

CITY           SKY/WX    TMP DP  RH WIND       PRES   REMARKS
LORDSBURG      RAIN      45  37  76 W9        30.08R
DEMING         LGT RAIN  42  40  92 NW10      30.08R
HOLLOMAN AFB   CLOUDY    53  31  42 S8        30.03S
ALAMOGORDO     CLOUDY    52  32  46 SW7       30.05S
T OR C         CLOUDY    47  36  65 SE5       30.04S

$$
NMZ519>523-190000-
CENTRAL VALLEYS/CENTRAL HIGHLANDS

CITY           SKY/WX    TMP DP  RH WIND       PRES   REMARKS
ALBUQUERQUE    CLOUDY    44  26  49 N8        30.09R
DOUBLE EAGLE   MOCLDY    39  27  60 VRB7      30.09S WCI  34
MORIARTY ARPT  CLOUDY    40  26  57 W7        30.08S WCI  35
CLINES CORNERS CLOUDY    36  23  59 NW15      30.03S WCI  27
BELEN          CLOUDY    43  29  58 NW3       30.09R
SOCORRO        DRIZZLE   44  36  73 W5        30.08R

$$
NMZ524>526-539-540-190000-
SOUTHCENTRAL MOUNTAINS

CITY           SKY/WX    TMP DP  RH WIND       PRES   REMARKS
RUIDOSO        CLOUDY    39  27  60 SW16      30.07S WCI  30

$$
NMZ527>531-190000-
NORTHEAST HIGHLANDS/NORTHEAST PLAINS

CITY           SKY/WX    TMP DP  RH WIND       PRES   REMARKS
LAS VEGAS      CLOUDY    40  22  48 SW10      30.00R WCI  33
RATON          PTCLDY    41  22  46 S8        29.99R
CLAYTON        MOCLDY    37  31  78 NE9       30.03  WCI  30

$$
NMZ532>537-190000-
EASTCENTRAL PLAINS

CITY           SKY/WX    TMP DP  RH WIND       PRES   REMARKS
TUCUMCARI      MOCLDY    45  31  58 NE7       30.03S
CANNON AFB     CLOUDY    53  20  27 W12       30.03R
CLOVIS AIRPORT CLOUDY    54  21  28 SW13      30.03S

$$
NMZ028-029-538-190000-
SOUTHEAST PLAINS

CITY           SKY/WX    TMP DP  RH WIND       PRES   REMARKS
ROSWELL        CLOUDY    54  30  40 E5        30.03S
ARTESIA        CLOUDY    57  32  38 S7        30.03S
CARLSBAD       CLOUDY    60  34  37 SE6       30.01S
HOBBS          CLEAR     57  32  38 CALM      30.04F


$$



USA.gov is the U.S. government's official web portal to all federal, state and local government web resources and services.